Flag for Germany Weather past 2 weeks in Ludwigsburg, Baden-Württemberg, Germany

Now
34 °F

Passing clouds.


Feels Like: 34 °F
Forecast: 33 / 37 °F
Wind: 2 mph from Southwest

Location: Stuttgart-Echterdingen

Current Time: Jan 26, 2015 at 5:23:11 AM

Latest Report: Jan 26, 2015 at 4:20 AM


Visibility: N/A

Pressure: 30.30 "Hg

Humidity: 87%

Dew point: 30 °F

Location of LudwigsburgLocation

Historic Weather in Ludwigsburg — Graph

°F

Ludwigsburg temperature yesterday

Maximum temperature yesterday: 36 °F (at 1:20 PM)
Minimum temperature yesterday: 32 °F (at 12:20 AM)
Average temperature yesterday: 34 °F

Past Weeks' High & Low Weather Summary

 TemperatureHumidityPressure
High57 °F (Jan 13, 1:50 PM)100% (Jan 15, 2:20 AM)30.39 "Hg (Jan 15, 2:20 AM)
Low27 °F (Jan 18, 6:20 AM)28% (Jan 13, 12:50 PM)29.68 "Hg (Jan 16, 2:20 PM)
Average37 °F83%29.99 "Hg
* Reported Jan 11 3:20 AM — Jan 26 3:50 AM, Ludwigsburg, Weather by CustomWeather, © 2014

Note: Actual official high and low records may vary slightly from our data, if they occured in-between our weather recording intervals... More about our weather records

Advertising

Ludwigsburg weather history for previous 24 hours

 ConditionsComfort  
Time TempWeatherWind HumidityBarometerVisibility
3:50 AM
Jan 26
34 °FPassing clouds.1 mph87%30.33 "HgN/A
3:20 AM34 °FPassing clouds.2 mph87%30.33 "HgN/A
2:50 AM32 °FPartly cloudy.2 mph93%30.33 "HgN/A
2:20 AM32 °FPartly cloudy.5 mph93%30.33 "HgN/A
1:50 AM34 °FPartly cloudy.5 mph87%30.33 "HgN/A
1:20 AM34 °FPassing clouds.5 mph87%30.33 "HgN/A
12:50 AM34 °FPassing clouds.2 mph87%30.33 "HgN/A
12:20 AM34 °FPassing clouds.3 mph87%30.36 "HgN/A
11:50 PM
Jan 25
34 °FPartly cloudy.2 mph87%30.36 "HgN/A
11:20 PM34 °FPartly cloudy.3 mph87%30.36 "HgN/A
10:20 PM34 °FPassing clouds.5 mph87%30.36 "HgN/A
9:50 PM34 °FPassing clouds.3 mph87%30.36 "HgN/A
9:20 PM34 °FPassing clouds.3 mph87%30.36 "HgN/A
8:50 PM34 °FPassing clouds.3 mph87%30.36 "HgN/A
8:20 PM34 °FPassing clouds.2 mph87%30.36 "HgN/A
7:50 PM34 °FPassing clouds.3 mph87%30.39 "HgN/A
7:20 PM34 °FPassing clouds.5 mph87%30.39 "HgN/A
6:50 PM34 °FPassing clouds.6 mph87%30.39 "HgN/A
6:20 PM36 °FPassing clouds.8 mph81%30.39 "HgN/A
5:50 PM36 °FPartly cloudy.7 mph81%30.39 "HgN/A
5:20 PM36 °FPartly cloudy.3 mph81%30.36 "HgN/A
4:50 PM36 °FPartly sunny.3 mph81%30.36 "HgN/A
4:20 PM36 °FBroken clouds.5 mph81%30.36 "HgN/A
3:50 PM36 °FBroken clouds.6 mph81%30.36 "HgN/A
3:20 PM36 °FBroken clouds.7 mph81%30.36 "HgN/A
2:50 PM36 °FBroken clouds.6 mph81%30.36 "HgN/A
2:20 PM36 °FBroken clouds.5 mph81%30.36 "HgN/A
1:50 PM36 °FBroken clouds.6 mph81%30.36 "HgN/A
1:20 PM36 °FBroken clouds.8 mph81%30.39 "HgN/A
12:50 PM34 °FBroken clouds.6 mph87%30.39 "HgN/A
12:20 PM34 °FBroken clouds.6 mph87%30.39 "HgN/A
11:50 AM34 °FBroken clouds.8 mph87%30.39 "HgN/A
11:20 AM34 °FPartly sunny.6 mph87%30.39 "HgN/A
10:50 AM34 °FBroken clouds.3 mph87%30.39 "HgN/A
10:20 AM34 °FPartly sunny.5 mph87%30.39 "HgN/A
9:50 AM34 °FLight snow. Partly sunny.5 mph87%30.39 "HgN/A
9:20 AM32 °FPartly sunny.5 mph93%30.36 "HgN/A
8:50 AM32 °FBroken clouds.7 mph93%30.36 "HgN/A
8:20 AM32 °FBroken clouds.10 mph93%30.36 "HgN/A
7:50 AM32 °FPartly cloudy.8 mph93%30.36 "HgN/A
7:20 AM32 °FPartly cloudy.8 mph93%30.33 "HgN/A
6:50 AM32 °FPartly cloudy.9 mph93%30.33 "HgN/A
6:20 AM32 °FPassing clouds.8 mph93%30.33 "HgN/A
5:50 AM32 °FPassing clouds.8 mph93%30.30 "HgN/A
5:20 AM32 °FPassing clouds.10 mph93%30.30 "HgN/A
Weather by CustomWeather, © 2014

See weather overviewHow to use our weather pages